Regional Weather Roundup
Issued by NWS

Home | Current Version | Previous Version | Text Only | Print | Product List | Glossary On
Versions: 1 2 3 4 5 6 7 8 9 10 11 12 13 14 15 16 17 18 19 20 21 22 23 24 25 26 27 28 29 30 31 32 33 34 35 36 37 38 39 40 41 42 43 44 45 46 47 48 49 50
000
ASUS43 KDTX 030601
RWRMI
MICHIGAN HOURLY REGIONAL WEATHER ROUNDUP
NATIONAL WEATHER SERVICE DETROIT/PONTIAC MI
200 AM EDT SUN MAY 03 2015

NOTE: "FAIR" INDICATES FEW OR NO CLOUDS BELOW 12,000 FEET WITH NO
SIGNIFICANT WEATHER AND/OR OBSTRUCTION TO VISIBILITY.

MIZ047>049-052>055-059>063-066>070-074>076-081>083-030700-
SOUTHEAST LOWER MICHIGAN

CITY           SKY/WX    TMP DP  RH WIND       PRES   REMARKS
ADRIAN         CLEAR     50  41  71 W3        30.03S
6HR MIN TEMP:  49; 6HR MAX TEMP:  71;

ALMA           CLEAR     53  35  51 SW7       29.98S
ANN ARBOR      CLEAR     47  43  86 CALM      30.01S
BAD AXE        PTCLDY    51  37  59 CALM      29.97S
CARO           CLEAR     45  40  83 CALM      29.97S
DETROIT CITY   CLEAR     55  43  63 CALM      30.01S
6HR MIN TEMP:  55; 6HR MAX TEMP:  70;

DETROIT        PTCLDY    58  42  55 S3        30.01S
6HR MIN TEMP:  57; 6HR MAX TEMP:  73;

FLINT          CLEAR     49  39  68 S6        29.99S
6HR MIN TEMP:  49; 6HR MAX TEMP:  71;

HILLSDALE      CLEAR     59  38  46 SW5       30.02S
HOWELL         CLEAR     52  38  58 CALM      30.00S

CITY           SKY/WX    TMP DP  RH WIND       PRES   REMARKS
JACKSON        CLEAR     50  41  71 SW3       30.01S
6HR MIN TEMP:  50; 6HR MAX TEMP:  70;

LAMBERTVILLE   CLEAR     52  43  71 CALM      30.02S
LANSING        CLEAR     55  36  48 CALM      30.00S
6HR MIN TEMP:  54; 6HR MAX TEMP:  70;

LAPEER         FAIR      45  40  83 CALM      29.99F
MASON          CLEAR     52  37  56 CALM      30.00S
MONROE         CLEAR     52  45  76 CALM      30.00S
PONTIAC        CLEAR     51  39  63 CALM      30.00S
6HR MIN TEMP:  51; 6HR MAX TEMP:  70;

PORT HOPE        N/A     57  37  47 SW7       29.94F
6HR MIN TEMP:  54; 6HR MAX TEMP:  64;

PORT HURON     CLEAR     46  43  87 CALM      30.00S
TRI CITIES     FAIR      59  33  37 S7        29.97S
6HR MIN TEMP:  58; 6HR MAX TEMP:  71;

MIDLAND        FAIR      51  40  66 CALM      29.95F
TROY           CLEAR     57  42  57 CALM      30.02S
SAGINAW HB     CLEAR     55  32  41 SW5       29.96F
$$
MIZ043>046-050>051-056>058-064>065-071>073-077>080-030700-
SOUTHWEST LOWER MICHIGAN

CITY           SKY/WX    TMP DP  RH WIND       PRES   REMARKS
BATTLE CREEK   CLEAR     54  39  57 S5        30.00F
6HR MIN TEMP:  52; 6HR MAX TEMP:  70;

BENTON HARBOR  PTCLDY    58  38  47 S5        29.99R
6HR MIN TEMP:  51; 6HR MAX TEMP:  69;

BIG RAPIDS     MOCLDY    51  38  60 E7        29.95F
6HR MIN TEMP:  51; 6HR MAX TEMP:  68;

COLDWATER      CLEAR     55  39  56 S3        30.01S
6HR MIN TEMP:  51; 6HR MAX TEMP:  68;

FREMONT        FAIR      56  31  38 S3        29.95S
HOLLAND        PTCLDY    56  37  49 S7        29.98S
6HR MIN TEMP:  53; 6HR MAX TEMP:  67;

GRAND RAPIDS   PTCLDY    53  37  54 S8        29.98S
6HR MIN TEMP:  53; 6HR MAX TEMP:  68;

IONIA          FAIR      54  37  52 S6        29.98S
KALAMAZOO      PTCLDY    54  40  59 S6        30.00S
6HR MIN TEMP:  52; 6HR MAX TEMP:  70;

LUDINGTON      PTCLDY    64  32  30 S13       29.93F
MARSHALL       CLEAR     49  40  72 CALM      30.00S
MOUNT PLEASANT CLEAR     55  33  42 SW5       29.96S
6HR MIN TEMP:  52; 6HR MAX TEMP:  70;

MUSKEGON       PTCLDY    61  34  36 S9        29.96S
6HR MIN TEMP:  54; 6HR MAX TEMP:  67;

SOUTH HAVEN    PTCLDY    58  37  45 S5        29.98S
$$
MIZ016>042-030700-
NORTHERN LOWER MICHIGAN

CITY           SKY/WX    TMP DP  RH WIND       PRES   REMARKS
ALPENA         MOCLDY    45  39  79 CALM      29.93S
6HR MIN TEMP:  42; 6HR MAX TEMP:  61;

BEAVER ISLAND  PTCLDY    56  37  49 S6        29.88F
6HR MIN TEMP:  43; 6HR MAX TEMP:  63;

BELLAIRE       CLEAR     54  40  59 CALM      29.91S
6HR MIN TEMP:  53; 6HR MAX TEMP:  70;

CADILLAC       CLEAR     52  35  52 SW3       29.95S
CHARLEVOIX     MOCLDY    62  38  40 SW9       29.91F
6HR MIN TEMP:  62; 6HR MAX TEMP:  69;

FRANKFORT      CLEAR     68  26  21 S10G20    29.91S
GAYLORD        CLEAR     57  36  45 SW7       29.93S
6HR MIN TEMP:  57; 6HR MAX TEMP:  67;

GRAYLING       PTCLDY    58  34  41 CALM      29.95S
6HR MIN TEMP:  56; 6HR MAX TEMP:  69;

HARBOR SPRINGS PTCLDY    58  40  50 CALM      29.90S
HOUGHTON LAKE  CLEAR     56  40  55 CALM      29.95F
6HR MIN TEMP:  56; 6HR MAX TEMP:  68;

MANISTEE       CLEAR     54  34  47 E3        29.93S
OSCODA         CLEAR     51  39  65 SW3       29.94S
PELLSTON       MOCLDY    46  40  79 CALM      29.89F
6HR MIN TEMP:  44; 6HR MAX TEMP:  70;

ROGERS CITY    PTCLDY    57  42  56 S6        29.91F
TRAVERSE CITY  CLEAR     63  35  35 SW5       29.90S
6HR MIN TEMP:  63; 6HR MAX TEMP:  72;

$$
MIZ007>008-015-030700-
EASTERN UPPER MICHIGAN

CITY           SKY/WX    TMP DP  RH WIND       PRES   REMARKS
KINROSS        CLEAR     46  37  71 SE6       29.89S
6HR MIN TEMP:  46; 6HR MAX TEMP:  63;

MACKINAC ISLAN MOCLDY    55  41  59 S8        29.88F
6HR MIN TEMP:  42; 6HR MAX TEMP:  57;

NEWBERRY       PTCLDY    51  35  52 SW14G24   29.87F
6HR MIN TEMP:  50; 6HR MAX TEMP:  60;

S. S. MARIE    CLEAR     49  40  71 E6        29.89F
6HR MIN TEMP:  49; 6HR MAX TEMP:  66;

MUNISING         N/A     55  37  50 S13       29.81F
6HR MIN TEMP:  54; 6HR MAX TEMP:  69;

$$
MIZ004>006-011>014-085-030700-
CENTRAL UPPER MICHIGAN

CITY           SKY/WX    TMP DP  RH WIND       PRES   REMARKS
MANISTIQUE     PTCLDY    45  35  69 S13G18    29.86S
6HR MIN TEMP:  45; 6HR MAX TEMP:  48;

ESCANABA       MOCLDY    45  36  70 CALM      29.83S
6HR MIN TEMP:  45; 6HR MAX TEMP:  57;

MENOMINEE      CLEAR     59  43  55 SW8       29.85S
6HR MIN TEMP:  57; 6HR MAX TEMP:  66;

SAWYER-GWINN   PTCLDY    50  40  69 S3        29.82F
$$
MIZ001>003-009>011-084-030700-
WESTERN UPPER MICHIGAN

CITY           SKY/WX    TMP DP  RH WIND       PRES   REMARKS
IRON MOUNTAIN  CLEAR     56  40  55 SW6       29.82F
6HR MIN TEMP:  53; 6HR MAX TEMP:  74;

HOUGHTON       PTCLDY    53  39  59 S5        29.76F
6HR MIN TEMP:  49; 6HR MAX TEMP:  57;

COPPER HARBOR    N/A     56  40  55 SW10      29.75F
6HR MIN TEMP:  50; 6HR MAX TEMP:  59;

IRONWOOD       PTCLDY    64  45  48 S14G22    29.74S
6HR MIN TEMP:  64; 6HR MAX TEMP:  73;

$$

ABBREVIATIONS USED IN REMARKS
   TC - TEMPERATURE IN CELSIUS
  WCI - WIND CHILL INDEX
   HX - HEAT INDEX
  VSB - VISIBILITY




USA.gov is the U.S. government's official web portal to all federal, state and local government web resources and services.